| time (UTC) | temp F | wind direction | speed MPH | gust MPH | rain 1hr in | rain 24hr in | rain mn in | humidity % | barometer mb |
| 20260503071842 | 58 | 248 | 1.0 | 2.0 | 0.00 | 0.06 | 0.06 | 90 | 1009.9 |
| 20260503070900 | 58 | 248 | 1.0 | 2.0 | 0.01 | 0.06 | 0.06 | 90 | 1009.9 |
| 20260503054820 | 58 | 225 | 4.0 | 6.0 | 0.03 | 0.04 | 0.03 | 88 | 1009.7 |
| 20260503053840 | 58 | 203 | 2.0 | 3.0 | 0.02 | 0.03 | 0.02 | 88 | 1009.9 |
| 20260503052821 | 58 | 203 | 1.0 | 1.0 | 0.02 | 0.02 | 0.02 | 88 | 1009.8 |
| 20260503051841 | 58 | 225 | 3.0 | 6.0 | 0.02 | 0.02 | 0.02 | 87 | 1009.6 |
| 20260503050820 | 59 | 225 | 2.0 | 3.0 | 0.01 | 0.02 | 0.01 | 87 | 1009.4 |
| 20260503045821 | 59 | 225 | 2.0 | 4.0 | 0.01 | 0.02 | 0.01 | 86 | 1009.6 |
| 20260503044851 | 59 | 248 | 3.0 | 6.0 | 0.00 | 0.01 | 0.00 | 86 | 1009.5 |
| 20260503043820 | 59 | 225 | 1.0 | 3.0 | 0.00 | 0.01 | 0.00 | 86 | 1009.4 |
| 20260503042820 | 59 | 248 | 2.0 | 3.0 | 0.00 | 0.01 | 0.00 | 86 | 1009.3 |
| 20260503041851 | 59 | 225 | 1.0 | 2.0 | 0.00 | 0.01 | 0.00 | 85 | 1009.4 |
| 20260503040820 | 59 | 225 | 1.0 | 2.0 | 0.00 | 0.01 | 0.00 | 85 | 1009.4 |
| 20260503035820 | 59 | 225 | 2.0 | 3.0 | 0.00 | 0.01 | 0.00 | 85 | 1009.5 |
| 20260503034831 | 59 | 225 | 2.0 | 4.0 | 0.00 | 0.01 | 0.00 | 85 | 1009.7 |
| 20260503033831 | 59 | 225 | 3.0 | 5.0 | 0.00 | 0.01 | 0.00 | 84 | 1009.6 |
| 20260503032831 | 59 | 248 | 1.0 | 2.0 | 0.00 | 0.01 | 0.00 | 84 | 1009.6 |
| 20260503031820 | 60 | 225 | 1.0 | 2.0 | 0.00 | 0.01 | 0.00 | 84 | 1009.6 |
| 20260503030820 | 60 | 248 | 1.0 | 3.0 | 0.00 | 0.01 | 0.00 | 83 | 1009.5 |
| 20260503025831 | 60 | 225 | 2.0 | 3.0 | 0.00 | 0.01 | 0.00 | 83 | 1009.5 |
| 20260503024852 | 60 | 225 | 1.0 | 3.0 | 0.00 | 0.01 | 0.00 | 82 | 1009.5 |
| 20260503023820 | 60 | 270 | 2.0 | 2.0 | 0.00 | 0.01 | 0.00 | 82 | 1009.7 |
| 20260503022820 | 60 | 225 | 3.0 | 4.0 | 0.00 | 0.02 | 0.00 | 82 | 1009.7 |
| 20260503021820 | 60 | 0.0 | 1.0 | 0.00 | 0.05 | 0.00 | 81 | 1009.7 | |
| 20260503020820 | 61 | 0.0 | 1.0 | 0.00 | 0.07 | 0.00 | 81 | 1009.9 | |
| 20260503015841 | 61 | 248 | 1.0 | 3.0 | 0.00 | 0.07 | 0.00 | 81 | 1009.9 |
| 20260503014820 | 60 | 180 | 1.0 | 2.0 | 0.00 | 0.09 | 0.00 | 81 | 1010.1 |
| 20260503013830 | 60 | 203 | 4.0 | 6.0 | 0.00 | 0.10 | 0.00 | 82 | 1010.3 |
| 20260503012831 | 60 | 203 | 3.0 | 6.0 | 0.00 | 0.19 | 0.00 | 82 | 1010.3 |
| 20260503011820 | 60 | 180 | 2.0 | 5.0 | 0.00 | 0.19 | 0.00 | 82 | 1010.2 |
| 20260503010839 | 60 | 225 | 1.0 | 2.0 | 0.00 | 0.19 | 0.00 | 82 | 1010.3 |
| 20260503005820 | 60 | 180 | 2.0 | 3.0 | 0.00 | 0.20 | 0.00 | 82 | 1010.2 |
| 20260503004831 | 60 | 0.0 | 1.0 | 0.00 | 0.20 | 0.00 | 82 | 1010.3 | |
| 20260503003820 | 60 | 203 | 1.0 | 2.0 | 0.00 | 0.20 | 0.00 | 82 | 1010.6 |
| 20260503002830 | 60 | 180 | 1.0 | 2.0 | 0.00 | 0.20 | 0.00 | 82 | 1010.5 |
| 20260503001820 | 60 | 180 | 1.0 | 3.0 | 0.00 | 0.20 | 0.00 | 81 | 1010.7 |
| 20260503000820 | 60 | 0.0 | 0.0 | 0.00 | 0.20 | 0.00 | 81 | 1010.7 | |
| 20260502235842 | 61 | 0.0 | 1.0 | 0.00 | 0.20 | 0.20 | 81 | 1010.8 | |
| 20260502234820 | 61 | 225 | 1.0 | 2.0 | 0.00 | 0.20 | 0.20 | 80 | 1010.9 |
| 20260502233820 | 61 | 248 | 2.0 | 3.0 | 0.00 | 0.20 | 0.20 | 80 | 1011.1 |
| 20260502232831 | 62 | 248 | 1.0 | 2.0 | 0.00 | 0.20 | 0.20 | 80 | 1011.3 |
| 20260502231831 | 62 | 225 | 1.0 | 2.0 | 0.00 | 0.20 | 0.20 | 80 | 1011.3 |
| 20260502230820 | 62 | 203 | 2.0 | 3.0 | 0.00 | 0.20 | 0.20 | 80 | 1011.4 |
| 20260502225820 | 62 | 225 | 3.0 | 5.0 | 0.00 | 0.20 | 0.20 | 80 | 1011.4 |
| 20260502224911 | 62 | 180 | 3.0 | 5.0 | 0.00 | 0.20 | 0.20 | 80 | 1011.3 |
| 20260502223820 | 62 | 225 | 1.0 | 2.0 | 0.00 | 0.20 | 0.20 | 80 | 1011.1 |
| 20260502222820 | 62 | 0.0 | 2.0 | 0.00 | 0.20 | 0.20 | 80 | 1011.0 | |
| 20260502221831 | 63 | 0.0 | 0.0 | 0.00 | 0.20 | 0.20 | 80 | 1011.0 | |
| 20260502220831 | 63 | 158 | 1.0 | 2.0 | 0.00 | 0.20 | 0.20 | 80 | 1010.9 |
| 20260502215819 | 63 | 180 | 2.0 | 3.0 | 0.00 | 0.20 | 0.20 | 80 | 1011.2 |
| 20260502214842 | 63 | 203 | 2.0 | 5.0 | 0.00 | 0.20 | 0.20 | 80 | 1011.3 |
| 20260502213840 | 63 | 203 | 1.0 | 3.0 | 0.00 | 0.20 | 0.20 | 79 | 1011.4 |
| 20260502212820 | 63 | 203 | 2.0 | 3.0 | 0.00 | 0.20 | 0.20 | 79 | 1011.4 |
| 20260502211820 | 64 | 180 | 2.0 | 4.0 | 0.00 | 0.20 | 0.20 | 78 | 1011.5 |
| 20260502210820 | 64 | 225 | 3.0 | 4.0 | 0.00 | 0.20 | 0.20 | 77 | 1011.5 |
| 20260502205851 | 64 | 203 | 1.0 | 2.0 | 0.00 | 0.20 | 0.20 | 78 | 1011.5 |
| 20260502204831 | 64 | 203 | 2.0 | 3.0 | 0.00 | 0.20 | 0.20 | 78 | 1011.6 |
| 20260502203820 | 64 | 203 | 3.0 | 5.0 | 0.00 | 0.20 | 0.20 | 79 | 1011.8 |
| 20260502202840 | 64 | 180 | 1.0 | 2.0 | 0.00 | 0.20 | 0.20 | 79 | 1011.8 |
| 20260502201820 | 64 | 0.0 | 0.0 | 0.00 | 0.20 | 0.20 | 79 | 1011.8 | |
| 20260502200830 | 64 | 113 | 1.0 | 2.0 | 0.00 | 0.20 | 0.20 | 78 | 1011.7 |
| 20260502195831 | 64 | 90 | 3.0 | 4.0 | 0.00 | 0.20 | 0.20 | 77 | 1011.7 |
| 20260502194830 | 63 | 158 | 1.0 | 2.0 | 0.00 | 0.20 | 0.20 | 76 | 1011.6 |
| 20260502193820 | 63 | 45 | 1.0 | 4.0 | 0.00 | 0.20 | 0.20 | 74 | 1011.7 |
| 20260502192840 | 63 | 90 | 3.0 | 5.0 | 0.00 | 0.20 | 0.20 | 72 | 1011.5 |
| 20260502191819 | 63 | 113 | 1.0 | 2.0 | 0.00 | 0.20 | 0.20 | 72 | 1011.7 |
| 20260502191017 | 62 | 68 | 2.0 | 3.0 | 0.00 | 0.20 | 0.20 | 73 | 1011.7 |
| 20260502185920 | 62 | 0.0 | 1.0 | 0.00 | 0.20 | 0.20 | 74 | 1011.7 | |
| 20260502184920 | 62 | 45 | 1.0 | 2.0 | 0.00 | 0.20 | 0.20 | 74 | 1011.8 |
| 20260502183952 | 63 | 0 | 2.0 | 3.0 | 0.00 | 0.20 | 0.20 | 74 | 1011.6 |
| 20260502182930 | 63 | 45 | 2.0 | 3.0 | 0.00 | 0.20 | 0.20 | 74 | 1011.8 |
| 20260502181919 | 63 | 45 | 2.0 | 3.0 | 0.00 | 0.20 | 0.20 | 73 | 1011.9 |
| 20260502180920 | 63 | 0 | 2.0 | 3.0 | 0.00 | 0.20 | 0.20 | 74 | 1011.9 |
| 20260502170519 | 67 | 45 | 5.0 | 6.0 | 0.00 | 0.20 | 0.20 | 60 | 1012.4 |
| 20260502163551 | 67 | 45 | 3.0 | 4.0 | 0.00 | 0.20 | 0.20 | 63 | 1012.6 |
| 20260502162519 | 67 | 23 | 4.0 | 6.0 | 0.00 | 0.20 | 0.20 | 64 | 1012.8 |
| 20260502161519 | 67 | 45 | 2.0 | 4.0 | 0.00 | 0.20 | 0.20 | 64 | 1012.8 |
| 20260502160519 | 67 | 338 | 4.0 | 6.0 | 0.00 | 0.20 | 0.20 | 63 | 1013.1 |
| 20260502151519 | 69 | 23 | 3.0 | 4.0 | 0.00 | 0.20 | 0.20 | 60 | 1013.7 |
| 20260502150541 | 70 | 23 | 3.0 | 4.0 | 0.00 | 0.20 | 0.20 | 60 | 1013.8 |
| 20260502130519 | 74 | 68 | 1.0 | 2.0 | 0.00 | 0.20 | 0.20 | 51 | 1015.5 |
| 20260502123611 | 74 | 248 | 4.0 | 8.0 | 0.00 | 0.20 | 0.20 | 50 | 1015.8 |
| 20260502122551 | 74 | 180 | 3.0 | 5.0 | 0.00 | 0.20 | 0.20 | 51 | 1016.1 |
| 20260502121551 | 74 | 158 | 3.0 | 5.0 | 0.00 | 0.20 | 0.20 | 49 | 1016.2 |
| 20260502120539 | 73 | 45 | 1.0 | 3.0 | 0.00 | 0.20 | 0.20 | 54 | 1016.4 |
| 20260502115529 | 72 | 338 | 1.0 | 2.0 | 0.00 | 0.20 | 0.20 | 57 | 1016.4 |
| 20260502114550 | 72 | 248 | 1.0 | 2.0 | 0.00 | 0.20 | 0.20 | 55 | 1016.7 |
| 20260502113519 | 73 | 0.0 | 1.0 | 0.00 | 0.20 | 0.20 | 55 | 1016.8 | |
| 20260502112610 | 74 | 248 | 3.0 | 4.0 | 0.00 | 0.20 | 0.20 | 54 | 1016.9 |
| 20260502111523 | 72 | 225 | 1.0 | 3.0 | 0.00 | 0.20 | 0.20 | 56 | 1017.0 |
| 20260502110540 | 72 | 248 | 2.0 | 2.0 | 0.00 | 0.20 | 0.20 | 51 | 1017.2 |
| 20260502105518 | 71 | 158 | 1.0 | 2.0 | 0.00 | 0.20 | 0.20 | 50 | 1017.2 |
| 20260502104520 | 69 | 225 | 3.0 | 4.0 | 0.00 | 0.20 | 0.20 | 53 | 1017.4 |
| 20260502103600 | 69 | 203 | 1.0 | 2.0 | 0.00 | 0.20 | 0.20 | 56 | 1017.4 |
| 20260502102520 | 69 | 0.0 | 1.0 | 0.00 | 0.20 | 0.20 | 64 | 1017.5 | |
| 20260502101530 | 68 | 90 | 2.0 | 4.0 | 0.00 | 0.20 | 0.20 | 60 | 1017.6 |
| 20260502100529 | 68 | 225 | 2.0 | 3.0 | 0.00 | 0.20 | 0.20 | 60 | 1017.9 |
| 20260502090543 | 63 | 270 | 1.0 | 2.0 | 0.00 | 0.20 | 0.20 | 74 | 1018.1 |